Location: Kawakawa
(35.3830°S, 174.0670°E)
Time: 16:16:33
(UTC+12:00)

Terra - Pass Details

Date: 24 January 2019
Orbit: 702 x 703 km, 98.2° (Epoch: 18 April)

Event Time Altitude Azimuth Distance (km) Brightness Sun altitude
Rises 23:13:06 0° 151° (SSE) 3,123 5.5 -25.8°
Reaches altitude 10° 23:15:53 10° 135° (SE) 2,195 4.4 -26.1°
Enters shadow 23:16:53 14° 125° (SE) 1,923 4.0 -26.2°
